315P/LONEOS (2005)

Japanese version
Home page
Updated on February 1, 2015

---------------------------------------------------------------------

* Profile

Designation 315P/2004 VR8
Discovery Date November 3, 2004
Magnitude 17.6 mag
Discoverer Lowell Observatory Near-Earth Object Search

* Pictures

* Orbital Elements

Epoch 2005 Aug. 18.0 TT = JDT 2453600.5
T 2005 Sept. 2.51865 TT                                 MPCW
q   2.3757005            (2000.0)            P               Q
n   0.09236955     Peri.   63.10152     -0.64712582     -0.68934650
a   4.8467449      Node    71.21615     +0.51835421     -0.71103505
e   0.5098359      Incl.   20.11711     +0.55905016     -0.13867432
P  10.7
From 580 observations 2004 Nov. 3-2014 Dec. 8, mean residual 0".6.

* Finding Charts

* Magnitudes Graph

        m1 = 3.2 + 5 log d + 25.0 log r

---------------------------------------------------------------------

The orbital elements are published on M.P.E.C. 2014-Y45.
The charts are made with StellaNavigator Ver.2.0 for Windows (AstroArts / ASCII).
The magnitudes graphs are made with Comet for Windows.

---------------------------------------------------------------------

Copyright(C) Seiichi Yoshida (comet@aerith.net). All rights reserved.